Location: LDNL
(36.4545°S, 141.6685°E)
Time: 10:09:06
(UTC+11:00)

Oscar 19 - Visible Passes

Search period start: 04 December 2023 00:00
Search period end: 14 December 2023 00:00
Orbit: 771 x 789 km, 98.9° (Epoch: 03 December)

Date Brightness Start Highest point End Pass type
(mag) Time Alt. Az. Time Alt. Az. Time Alt. Az.
04 Dec 13.7 03:57:08 10° E 03:59:18 13° ESE 04:01:28 10° SE visible
04 Dec 10.7 05:32:37 10° N 05:37:50 76° WNW 05:43:07 10° SSW visible
05 Dec 11.6 05:00:32 10° NNE 05:05:35 52° ESE 05:10:41 10° S visible
06 Dec 12.9 04:29:13 10° ENE 04:33:29 26° ESE 04:37:47 10° SSE visible
07 Dec 13.6 03:59:12 10° E 04:01:33 13° ESE 04:03:55 10° SE visible
07 Dec 10.7 05:34:54 10° N 05:40:06 73° WNW 05:45:23 10° SSW visible
08 Dec 11.5 05:02:47 10° NNE 05:07:51 54° ESE 05:12:59 10° S visible
09 Dec 12.9 04:31:25 10° ENE 04:35:45 27° ESE 04:40:06 10° SSE visible
10 Dec 13.6 04:01:16 10° E 04:03:48 14° ESE 04:06:20 10° SSE visible
10 Dec 10.7 05:37:11 10° N 05:42:23 70° WNW 05:47:39 10° SSW visible
11 Dec 11.4 05:05:01 10° NNE 05:10:07 57° ESE 05:15:16 10° S visible
12 Dec 12.8 04:33:37 10° NE 04:38:00 28° ESE 04:42:25 10° S visible
13 Dec 13.6 04:03:21 10° E 04:06:02 14° ESE 04:08:44 10° SSE visible
